Starlink 5060

operational
NORAD ID: 55413 Int'l Des: 2023-014 Owner: SPXS Country: US Constellation: starlink
LEOCIRCULAR

About Starlink 5060

Description loading...

Live Position

Loading 3D Globe...

Upcoming Passes

Altitude History

Altitude vs Time

uPlot chart will show altitude changes over time

Two-Line Element Set

1 55413U 23014Y 25338.66826912 .00000845 00000-0 78588-4 0 9996
2 55413 69.9990 323.8462 0003045 266.7575 93.3235 14.98321796157334
Epoch: Dec 4, 2025 • Age: 14 hours

Current Status

Altitude 580.7 km
Velocity 7.57 km/s
Sub-Earth Point -27.76°S, 7.73°W
Launch Date Jan 31, 2023
Age 2.8 years
Type internet

Technical Details

Classification Payload
Mass 305.00 kg
Dry Mass 290.00 kg
Total Mass 305.00 kg
Length 0.20 m
Diameter 2.80 m
Span 9.00 m
Shape Box + pan
Manufacturer SPXS
Bus Type Starlink
Phase Status In Orbit
Owner/State SPXS/US

Large Constellations

Loading constellations...